PD1VW-10 Weather Reports


time (UTC)temp
C
wind
direction
speed
KPH
gust
KPH
rain 1hr
cm
rain 24hr
cm
rain mn
cm
humidity
%
barometer
mb
20260503035023 12 0.0 0.0 0.03 0.30 0.30 98 1012.6
20260503034020 12 0.0 0.0 0.03 0.30 0.30 98 1012.7
20260503033018 12 0.0 0.0 0.03 0.30 0.30 98 1012.8
20260503032045 12 266 4.8 6.4 0.03 0.30 0.30 98 1013.2
20260503031102 12 266 4.8 4.8 0.03 0.30 0.30 97 1012.9
20260503030039 12 0.0 0.0 0.03 0.30 0.30 97 1012.8
20260503025037 12 0.0 0.0 0.00 0.28 0.28 97 1012.9
20260503024034 12 0.0 0.0 0.00 0.28 0.28 97 1013.0
20260503023032 12 0.0 0.0 0.00 0.28 0.28 97 1013.1
20260503022029 12 0.0 0.0 0.00 0.28 0.28 97 1012.8
20260503021026 12 0.0 0.0 0.00 0.28 0.28 97 1012.8
20260503020023 12 0.0 0.0 0.00 0.28 0.28 97 1013.0
20260503015021 12 0.0 0.0 0.00 0.28 0.28 97 1013.0
20260503014018 12 266 0.0 3.2 0.00 0.28 0.28 97 1012.8
20260503013016 12 0.0 0.0 0.00 0.28 0.28 97 1012.9
20260503012103 12 0.0 0.0 0.00 0.28 0.28 97 1013.2
20260503011041 12 0.0 0.0 0.00 0.28 0.28 97 1013.1
20260503010037 12 0.0 0.0 0.00 0.28 0.28 97 1013.4
20260503005035 12 0.0 0.0 0.00 0.28 0.28 97 1013.1
20260503004032 12 0.0 0.0 0.00 0.28 0.28 96 1013.2
20260503003050 13 0.0 0.0 0.03 0.28 0.28 96 1013.3
20260503002027 13 0.0 0.0 0.10 0.28 0.28 96 1013.2
20260503001024 13 270 3.2 11.3 0.15 0.28 0.28 96 1013.4
20260503000021 13 267 3.2 3.2 0.18 0.28 0.28 96 1013.5
20260502235019 13 267 6.4 9.7 0.25 0.28 0.28 96 1013.2
20260502234036 13 270 4.8 11.3 0.28 0.28 0.28 95 1013.5
20260502233103 13 266 4.8 9.7 0.25 0.25 0.25 95 1013.8
20260502232040 12 266 1.6 3.2 0.18 0.18 0.18 95 1014.3
20260502231037 12 266 4.8 9.7 0.13 0.13 0.13 94 1014.6
20260502230034 13 270 1.6 9.7 0.10 0.10 0.10 94 1014.6
20260502225031 13 265 6.4 11.3 0.03 0.03 0.03 94 1015.3
20260502224029 13 265 3.2 4.8 0.00 0.00 0.00 94 1015.7
20260502223026 13 266 3.2 4.8 0.00 0.00 0.00 94 1015.8
20260502222024 13 265 20.9 25.7 0.00 0.00 0.00 94 1016.2
20260502221021 12 267 4.8 6.4 0.00 0.00 0.00 94 1015.1
20260502220018 11 268 3.2 4.8 0.00 0.00 0.00 94 1014.8
20260502215016 11 267 3.2 3.2 0.00 0.00 0.00 94 1014.7
20260502214043 11 267 4.8 6.4 0.00 0.00 0.00 93 1014.8
20260502213040 11 268 3.2 4.8 0.00 0.00 0.00 93 1014.8
20260502212037 11 268 4.8 4.8 0.00 0.00 0.00 92 1014.9
20260502211035 11 268 3.2 3.2 0.00 0.00 0.00 92 1015.1
20260502210033 11 267 1.6 3.2 0.00 0.00 0.00 91 1015.4
20260502205030 11 269 4.8 4.8 0.00 0.00 0.00 92 1015.5
20260502204047 11 268 1.6 3.2 0.00 0.00 0.00 91 1015.6
20260502203024 11 267 1.6 3.2 0.00 0.00 0.00 91 1015.7
20260502202022 11 268 1.6 3.2 0.00 0.00 0.00 90 1015.9
20260502201039 11 270 4.8 6.4 0.00 0.00 0.00 90 1015.8
20260502200017 11 271 3.2 4.8 0.00 0.00 0.00 89 1015.8
20260502195044 12 272 4.8 6.4 0.00 0.00 0.00 89 1016.0
20260502194041 12 275 6.4 9.7 0.00 0.00 0.00 88 1016.1
20260502193038 12 275 1.6 3.2 0.00 0.00 0.00 88 1016.2
20260502192036 12 280 3.2 4.8 0.00 0.00 0.00 87 1016.2
20260502191033 13 286 4.8 4.8 0.00 0.00 0.00 87 1016.2
20260502190030 13 291 6.4 9.7 0.00 0.00 0.00 85 1016.3
20260502185028 13 292 8.0 9.7 0.00 0.00 0.00 84 1016.1
20260502184025 14 296 6.4 6.4 0.00 0.00 0.00 82 1016.1
20260502183022 15 332 9.7 12.9 0.00 0.00 0.00 80 1016.2
20260502182020 15 0 9.7 12.9 0.00 0.00 0.00 78 1016.1
20260502181017 16 15 9.7 11.3 0.00 0.00 0.00 76 1016.2
20260502180144 16 25 8.0 9.7 0.00 0.00 0.00 70 1016.3
20260502164023 18 304 8.0 12.9 0.00 0.00 0.00 50 1017.2
20260502163020 18 260 8.0 11.3 0.00 0.00 0.00 50 1017.4
20260502162018 18 262 6.4 9.7 0.00 0.00 0.00 53 1017.5
20260502161045 17 281 4.8 9.7 0.00 0.00 0.00 55 1017.3
20260502152051 18 254 11.3 14.5 0.00 0.00 0.00 48 1017.7
20260502151029 19 231 8.0 11.3 0.00 0.00 0.00 48 1017.6
20260502140120 18 233 12.9 22.5 0.00 0.00 0.00 55 1018.4
20260502123015 18 176 11.3 22.5 0.00 0.00 0.00 75 1018.8
20260502122043 18 217 20.9 27.4 0.00 0.00 0.00 73 1018.7
20260502121040 18 242 11.3 17.7 0.00 0.00 0.00 74 1018.8
20260502115035 18 218 9.7 11.3 0.00 0.00 0.00 75 1018.8
20260502114032 18 296 11.3 17.7 0.00 0.00 0.00 76 1019.0
20260502113029 18 223 14.5 20.9 0.00 0.00 0.00 76 1019.0
20260502112026 18 278 12.9 17.7 0.00 0.00 0.00 76 1019.0
20260502111043 19 226 16.1 25.7 0.00 0.00 0.00 76 1019.1
20260502110021 18 233 8.0 14.5 0.00 0.00 0.00 78 1019.0
20260502105018 18 223 4.8 9.7 0.00 0.00 0.00 79 1018.9
20260502104016 18 193 8.0 14.5 0.00 0.00 0.00 78 1019.2
20260502103143 18 230 8.0 12.9 0.00 0.00 0.00 78 1019.0
20260502102120 18 212 12.9 17.7 0.00 0.00 0.00 77 1019.2
20260502101038 18 226 8.0 16.1 0.00 0.00 0.00 79 1019.1
20260502091021 16 221 8.0 11.3 0.00 0.00 0.00 80 1019.3
20260502071019 14 173 3.2 3.2 0.00 0.00 0.00 79 1019.4
20260502070016 13 140 4.8 6.4 0.00 0.00 0.00 78 1019.5
20260502065044 13 162 6.4 6.4 0.00 0.00 0.00 78 1019.6
20260502064101 13 158 4.8 6.4 0.00 0.00 0.00 77 1019.6
20260502063038 13 176 3.2 4.8 0.00 0.00 0.00 77 1019.7
20260502062036 12 166 6.4 6.4 0.00 0.00 0.00 75 1019.5
20260502061033 12 195 3.2 3.2 0.00 0.00 0.00 76 1019.6
20260502060030 12 187 3.2 4.8 0.00 0.00 0.00 74 1019.4
20260502055027 12 179 6.4 6.4 0.00 0.00 0.00 72 1019.2
20260502054024 11 191 3.2 4.8 0.00 0.00 0.00 72 1019.2
20260502053101 11 180 1.6 3.2 0.00 0.00 0.00 72 1019.0
20260502052019 11 237 3.2 4.8 0.00 0.00 0.00 73 1019.3
20260502051016 10 252 3.2 3.2 0.00 0.00 0.00 74 1019.4
20260502050043 10 262 3.2 4.8 0.00 0.00 0.00 77 1019.5
20260502045041 10 267 0.0 1.6 0.00 0.00 0.00 78 1019.3
20260502044038 10 0.0 0.0 0.00 0.00 0.00 79 1019.3
20260502043035 9 0.0 0.0 0.00 0.00 0.00 78 1019.3
20260502042032 10 266 1.6 3.2 0.00 0.00 0.00 77 1019.2
20260502041029 10 266 1.6 3.2 0.00 0.00 0.00 76 1019.1
20260502040027 10 266 0.0 1.6 0.00 0.00 0.00 77 1019.4